Weather History for Thermal, CA

Change the Weather History Date:

Thursday, February 21, 2013

  Actual Average Record
Temperature  
Mean Temperature 52 °F 59 °F  
Max Temperature 65 °F 76 °F 89 °F (1963)
Min Temperature 38 °F 43 °F 28 °F (1953)
Degree Days  
Heating Degree Days 13 6  
Month to date heating degree days 176 166  
Since 1 July heating degree days 1003 1026  
Cooling Degree Days 0 1  
Month to date cooling degree days 0 1  
Year to date cooling degree days 0 3  
Moisture  
Dew Point 30 °F    
Average Humidity 51    
Maximum Humidity 76    
Minimum Humidity 26    
Precipitation  
Precipitation 0.00 in 0.03 in 0.33 in (2005)
Month to date precipitation T 0.49  
Year to date precipitation 0.37 1.16  
Since 1 July precipitation 2.55 2.54  
Snow  
Snow 0.00 in - - ()
Month to date snowfall 0.0  
Year to date snowfall 0.0  
Since 1 July snowfall 0.0  
Snow Depth 0.00 in    
Sea Level Pressure  
Sea Level Pressure 29.97 in    
Wind  
Wind Speed 5 mph (WNW)    
Max Wind Speed 18 mph    
Max Gust Speed 23 mph    
Visibility 10 miles    
Events      
T = Trace of Precipitation, MM = Missing Value Source: NWS Daily Summary

Daily Weather History Graph

Daily Weather History Graph

Search for Another Location

Airport:

Trip Planner

Search our weather history database for the weather conditions in past years. The results will help you decide how hot, cold, wet, or windy it might be!

Date:

Astronomy

Feb. 21, 2013 Rise Set
Actual Time 6:22 AM PST 5:34 PM PST
Civil Twilight 5:56 AM PST 6:00 PM PST
Nautical Twilight 5:27 AM PST 6:29 PM PST
Astronomical Twilight 4:59 AM PST 6:57 PM PST
Moon 2:00 PM PST (2/21) 3:22 AM PST (2/21)
Length of Visible Light 12h 03m
Length of Day
11h 12m
Waxing Gibbous, 84% of the Moon is Illuminated
Feb 21
Waxing Gibbous
Feb 25
Full
Mar 4
Last Quarter
Mar 11
New
Mar 19
First Quarter

Hourly Weather History & Observations

Time (PST) Temp. Windchill Dew Point Humidity Pressure Visibility Wind Dir Wind Speed Gust Speed Precip Events Conditions
12:52 AM 48.0 °F - 33.1 °F 56% 29.92 in 10.0 mi NW 3.5 mph - N/A   Clear
1:52 AM 43.0 °F 41.3 °F 30.9 °F 62% 29.93 in 10.0 mi NW 3.5 mph - N/A   Clear
2:52 AM 46.0 °F 43.1 °F 32.0 °F 58% 29.93 in 10.0 mi WNW 5.8 mph - N/A   Clear
3:52 AM 50.0 °F - 34.0 °F 54% 29.92 in 10.0 mi NW 9.2 mph - N/A   Clear
4:52 AM 50.0 °F - 35.1 °F 57% 29.94 in 10.0 mi NNW 9.2 mph - N/A   Clear
5:52 AM 48.0 °F - 34.0 °F 58% 29.94 in 10.0 mi WNW 4.6 mph - N/A   Clear
6:52 AM 37.9 °F 34.4 °F 30.9 °F 76% 29.96 in 10.0 mi SE 4.6 mph - N/A   Clear
7:52 AM 48.0 °F - 35.1 °F 61% 29.99 in 10.0 mi Calm Calm - N/A   Clear
8:52 AM 53.1 °F - 35.1 °F 50% 29.99 in 10.0 mi Variable 4.6 mph - N/A   Clear
10:52 AM 61.0 °F - 30.9 °F 32% 30.01 in 10.0 mi West 4.6 mph - N/A   Clear
11:52 AM 61.0 °F - 30.0 °F 31% 29.98 in 10.0 mi West 6.9 mph - N/A   Clear
12:52 PM 62.1 °F - 30.0 °F 30% 29.95 in 10.0 mi WSW 3.5 mph - N/A   Partly Cloudy
1:52 PM 63.0 °F - 28.0 °F 27% 29.94 in 10.0 mi Variable 5.8 mph - N/A   Clear
2:52 PM 64.9 °F - 28.0 °F 25% 29.94 in 10.0 mi NNW 9.2 mph - N/A   Mostly Cloudy
3:52 PM 61.0 °F - 28.9 °F 30% 29.95 in 10.0 mi ENE 5.8 mph - 0.00 in   Overcast
4:52 PM 62.1 °F - 24.1 °F 23% 29.95 in 10.0 mi Calm Calm - N/A   Clear
5:52 PM 55.0 °F - 28.0 °F 35% 29.97 in 10.0 mi WSW 8.1 mph - N/A   Clear
6:52 PM 50.0 °F - 27.0 °F 41% 29.99 in 10.0 mi WSW 3.5 mph - N/A   Clear
7:52 PM 45.0 °F 43.5 °F 28.0 °F 52% 30.01 in 10.0 mi NNE 3.5 mph - N/A   Clear
8:52 PM 43.0 °F - 27.0 °F 53% 30.03 in 10.0 mi Calm Calm - N/A   Clear
9:52 PM 39.0 °F - 27.0 °F 62% 30.05 in 10.0 mi Calm Calm - N/A   Clear
10:52 PM 37.9 °F - 27.0 °F 65% 30.05 in 10.0 mi Calm Calm - N/A   Clear
11:52 PM 36.0 °F - 24.1 °F 62% 30.06 in 10.0 mi Calm Calm - N/A   Clear